View from above orbital plane
|
View from above satellite
|
Ground track
|
The orbit data is extracted from the following two-line orbital elements,
1 27819U 03023B 21061.38060689 .00000043 00000-0 29669-4 0 9998
2 27819 82.9449 103.6280 0044996 248.6869 122.5163 13.74236679889867
Epoch (UTC): | 02 March 2021 09:08:04 |
Eccentricity: | 0.0044996 |
inclination: | 82.9449° |
perigee height: | 951 km |
apogee height: | 1017 km |
right ascension of ascending node: | 103.6280° |
argument of perigee: | 248.6869° |
revolutions per day: | 13.74236679 |
mean anomaly at epoch: | 122.5163° |
orbit number at epoch: | 88986 |
The dashed part of the orbit path shows where the satellite is in the earth's shadow,
|
|